Location: Drummondville
(45.8830°N, 72.4830°W)
Time: 17:08:02
(UTC-05:00)

N. Korean satellite - Pass Details

Date: 17 November 2017
Orbit: 460 x 514 km, 97.2° (Epoch: 22 November)

Event Time Altitude Azimuth Distance (km) Brightness Sun altitude
Rises 17:36:30 0° 162° (SSE) 2,483 10.1 -13.9°
Reaches altitude 10° 17:38:32 10° 160° (SSE) 1,618 9.1 -14.2°
Maximum altitude 17:41:59 72° 76° (ENE) 500 6.4 -14.8°
Drops below altitude 10° 17:45:32 10° 352° (N) 1,657 9.2 -15.4°
Sets 17:47:37 0° 350° (N) 2,551 10.2 -15.8°
